Regional Weather Roundup
Issued by NWS Pendleton, OR

Home | Current Version | Previous Version | Text Only | Print | Product List | Glossary On
Versions: 1 2 3 4 5 6 7 8 9 10 11 12 13 14 15 16 17 18 19 20 21 22 23 24 25 26 27 28 29 30 31 32 33 34 35 36 37 38 39 40 41 42 43 44 45 46 47 48 49 50
000
ASUS46 KPDT 161925
RWRPDT
PENDLETON REGIONAL WEATHER ROUNDUP
NATIONAL WEATHER SERVICE PENDLETON OREGON
1200 PM PDT WED APR 16 2014

NOTE: FAIR INDICATES FEW OR NO CLOUDS BELOW 12,000 FEET WITH NO
SIGNIFICANT WEATHER AND/OR OBSTRUCTIONS TO VISIBILITY.

# INDICATES UNOFFICIAL STATION AND DATA

WAZ520-162010-
EAST SLOPES OF WASHINGTON CASCADES

CITY            SKY/WX      TMP DP  RH  WIND    PRES   REMARKS
#BUMPING DAM    N/A         41  N/A N/A SW5     N/A
#CLE ELUM HS    N/A         46  40  79  SW1     29.99R
#CLE ELUM 2NW   N/A         46  38  73  S3      N/A
#CLE ELUM LAKE  N/A         44  39  82  W1      30.03S
#CLIFFDEL 2NW   N/A         45  36  70  CALM    N/A
#GLENWOOD       N/A         50  40  68  SW10    30.04S
#MANASTASH CYN  N/A         50  32  50  CALM    29.97F
#NELSON         N/A         46  41  83  CALM    30.06S
#NELSON 3SW     N/A         41  39  93  CALM    30.26R
#NILE           N/A         51  38  61  W2      29.35S
#RONALD 2NW     N/A         45  40  82  SW1     29.89
#TEANAWAY 4NE   N/A         48  42  80  SW3     N/A
#TROUT LAKE HS  N/A         50  42  74  S7      N/A
#TROUT LAKE 1NE N/A         49  41  74  SW5     30.08F
$$

WAZ521-162010-
SIMCOE HIGHLANDS

CITY            SKY/WX      TMP DP  RH  WIND    PRES   REMARKS
#BICKLETON HS   N/A         50  30  46  W7      30.03S
#CENTERVILLE 4W N/A         54  42  64  W10     29.82R
#CENTERVILLE 1SWN/A         52  41  66  W15     30.03F
#GOLDENDALE 1NE N/A         53  35  50  SW7     N/A
#GOLDENDALE 1S  N/A         54  43  66  NW10    28.22S
#GOLDENDALE 5WNWN/A         53  40  61  SW13    30.05F
#GOODNOE HILLS  N/A         59  42  53  NW21    29.99S
#LYLE 6NE       N/A         50  43  77  SW5     30.06S
$$

WAZ026-162010-
KITTITAS VALLEY

CITY            SKY/WX      TMP DP  RH  WIND    PRES   REMARKS
ELLENSBURG AP   CLOUDY      56  35  45  NW8     30.01S
#ELLENSBURG CWU N/A         54  37  52  N7      29.97S
#ELLENSBURG 3NE N/A         52  39  61  N8      30.02R
#ELLENSBURG     N/A         56  40  55  N7      N/A
#ELLENSBURG 1E  N/A         54  35  48  CALM    N/A
#KITTITAS 4N    N/A         58  40  51  W3      30.17R
#KITTITAS 3S    N/A         53  38  57  CALM    30.01R
#THORP 6N       N/A         46  38  73  N15     30.05S WCI 40
$$

WAZ027-162010-
YAKIMA VALLEY

CITY            SKY/WX      TMP DP  RH  WIND    PRES   REMARKS
YAKIMA AIRPORT  MOCLDY      59  36  42  E7      30.02F
YAKIMA-VAGABOND MOCLDY      56  34  43  SW8     30.03S
#COWICHE 1N     N/A         55  38  53  E1      30.16S
#DONALD 2NE     N/A         66  31  27  E2      30.34S
#GRANDVIEW      N/A         60  35  39  W1      30.04S
#MABTON         N/A         59  38  45  CALM    30.03S
#MOXEE 2E       N/A         58  18  21  S5      29.92F
#NACHES 2SW     N/A         56  38  51  S2      30.01S
#OUTLOOK DOT    N/A         58  34  40  S5      N/A
#SELAH 8E       N/A         55  33  43  S6      N/A
#TERRACE HTS    N/A         56  36  47  S1      29.98S
#TOPPENISH      N/A         58  36  44  CALM    29.93F
#WAPATO 4NE     N/A         66  31  27  E2      30.34S
#WEST VALLEY    N/A         55  37  51  E2      30.03S
#W YAKIMA       N/A         57  37  47  S2      30.01F
#WHITE SWAN 5E  N/A         62  39  43  SW6     30.01S
#WILEY CITY 3W  N/A         57  33  40  CALM    30.02F
$$

WAZ028-162010-
LOWER COLUMBIA BASIN...WASHINGTON

CITY            SKY/WX      TMP DP  RH  WIND    PRES   REMARKS
HANFORD         CLOUDY      60  33  36  SW9     30.01S
PASCO           MOCLDY      62  37  39  SW14G24 30.05S
PROSSER AWOS    N/A         61  37  41  S3      30.06S
RICHLAND AWOS   PTCLDY      63  36  36  SW10    30.04S
#BASIN CITY 5SW N/A         61  42  50  S7      30.03S
#BENTON CITY    N/A         60  37  42  SW5     29.93S
#CONNELL 5NW    N/A         57  41  55  SW8     29.99F
#ELTOPIA        N/A         61  43  51  S7      30.00F
#ELTOPIA 6NW    N/A         58  41  53  SW7     29.00S
#KENNEWICK 3S   N/A         58  39  49  N7      30.04S
#PASCO-BROADMOORN/A         63  38  39  E3      29.94F
#PATERSON       N/A         58  41  53  SW13    30.03F
#PROSSER        N/A         59  35  40  CALM    30.03R
#SAGEMOOR 2W    N/A         59  39  47  S7      29.88F
#TOUCHET 2S     N/A         60  42  51  SW7     30.04F
#WEST PASCO     N/A         63  42  46  W6      30.04S
$$

WAZ029-162010-
FOOTHILLS OF THE BLUES...WASHINGTON

CITY            SKY/WX      TMP DP  RH  WIND    PRES   REMARKS
WALLA WALLA AP  MOCLDY      57  37  47  S12     30.07F
#COLLEGE PLACE  N/A         63  36  36  S5      30.07F
#LOWDEN 2SE     N/A         60  38  44  W8      30.02F
#PLEASANT VIEW 1N/A         55  39  55  S15     30.08F
#PRESCOTT       N/A         56  41  57  SW1     30.06F
#SUDBURY        N/A         61  N/A N/A SW3     N/A
#WHITMAN COLLEGEN/A         56  38  51  SE8     30.11F
#WALLA WALLA 5E N/A         57  38  49  S14     N/A
#WALLA WALLA U  N/A         58  39  49  SW8     30.06F
#WHITMAN MISSIONN/A         59  40  49  S3      30.07S
$$

WAZ030-162010-
BLUE MOUNTAINS...WASHINGTON

CITY            SKY/WX      TMP DP  RH  WIND    PRES   REMARKS
$$

ORZ009-041-WAZ024-162010-
COLUMBIA RIVER GORGE

CITY            SKY/WX      TMP DP  RH  WIND    PRES   REMARKS
HOOD RIVER AP   CLOUDY      54  43  66  W13     30.10S
THE DALLES AP   CLOUDY      58  41  53  NW13    30.08S
#ARLINGTON AIRPON/A         59  41  51  W14     25.07
#CELILO DOT     N/A         61  41  48  N7      N/A
#MARYHILL 2W    N/A         58  42  55  SE3     N/A
#MOSIER 1S      N/A         55  35  47  NW6     30.12S
#MURDOCK        N/A         57  45  64  NW10    30.10F
#RUFUS DOT      N/A         62  41  46  W15     N/A

$$

ORZ510-162010-
NORTH CENTRAL OREGON

CITY            SKY/WX      TMP DP  RH  WIND    PRES   REMARKS
#CHENOWITH 1W   N/A         49  41  74  W23     N/A    WCI 42
#COW CYN RST AREN/A         51  -59  0  SW9     N/A
#GRASS VALLEY   N/A         54  37  52  NW1     N/A
#GRASS VALLEY 1SN/A         55  38  53  SW3     30.06F
#KENT DOT       N/A         53  32  45  S10     N/A
#MAUPIN SCHOOL  N/A         60  37  42  W6      30.08F
#MORO SCHOOL    N/A         55  42  61  W6      30.06
#SHANIKO 5WSW   N/A         50  31  48  SW7     N/A
#SHANIKO 4NW    N/A         48  32  54  W8      30.05S
#TYGH VALLEY 2NEN/A         59  39  47  S5      30.04F
#WAPANITIA AIRPON/A         56  39  53  W7      30.06F
#WASCO DOT      N/A         57  41  55  NW10    N/A
#WASCO 5NE      N/A         55  41  59  N7      30.06S
$$

ORZ511-162010-
CENTRAL OREGON

CITY            SKY/WX      TMP DP  RH  WIND    PRES   REMARKS
BEND AIRPORT    SUNNY       54  28  36  E7      30.05F
MADRAS AIRPORT  SUNNY       54  32  43  CALM    30.08S
REDMOND AIRPORT SUNNY       55  28  35  CALM    30.05F
#BEND 6E        N/A         54  26  34  CALM    29.99F
#BEND 1SW       N/A         65  36  34  W2      N/A
#BEND-AWBREY    N/A         55  32  41  NE2     30.05F
#BEND-KIM LN    N/A         57  33  40  NE2     30.01F
#CROOKED RVR RANN/A         59  36  42  S1      30.05F
#CULVER         N/A         56  34  43  W1      30.01F
#LAKE BILLY CHINN/A         54   4  13  NE7     30.09F
#POWELL BUTTE 3EN/A         50  32  50  N5      N/A
#POWELL BUTTE   N/A         62  38  41  N5      29.69F
#PRINEVILLE AIR N/A         52  32  46  CALM    30.03F
#PRINEVILLE 3N  N/A         54  33  45  CALM    30.01F


ORZ509-162010-
EAST SLOPES OF OREGON CASCADES

CITY            SKY/WX      TMP DP  RH  WIND    PRES   REMARKS
#BLUE BOX PASS  N/A         42  -8  11  CALM    N/A
#CAMP SHERMAN   N/A         60  34  37  E2      30.02F
#LA PINE DOT    N/A         56  26  31  W7      N/A
#LA PINE 4NW    N/A         52  32  46  SE2     30.08F
#LAVA BUTTE DOT N/A         53  30  41  NW2     N/A
#SISTERS AIRPOR N/A         55  40  57  N2      30.05F
#SISTERS ODOT   N/A         55  N/A N/A CALM    N/A
#SISTERS 3N     N/A         57  31  37  N6      30.10S
#SUNRIVER       N/A         55  32  41  SE2     29.92F
#SUNRIVER AP    N/A         51  33  50  S5      30.00F
#SUTTLE LK DOT  N/A         47  35  63  W22G30  N/A    WCI 39
#TUMALO 3W      N/A         54  31  41  E2      29.94F
#WANOGA BUTTE D N/A         43  27  53  SW6     N/A

$$

ORZ044-162010-
LOWER COLUMBIA BASIN...OREGON

CITY            SKY/WX      TMP DP  RH  WIND    PRES   REMARKS
HERMISTON       CLOUDY      62  37  39  SW14    30.05F
#BOARDMAN SCHOOLN/A         60  39  46  W6      30.04F
#BOARDMAN 3W    N/A         63  42  46  SW17    29.79S
#BOARDMAN 8SW   N/A         59  41  51  SW12    30.05S
#IONE SCHOOL    N/A         58  36  44  W7      30.04F
#IRRIGON 4NW    N/A         60  40  47  SW15    N/A
#UMATILLA       N/A         62  38  41  SW9     30.03F
$$

ORZ507-162010-
NORTHERN FOOTHILLS OF THE BLUES

CITY            SKY/WX      TMP DP  RH  WIND    PRES   REMARKS
PENDLETON AIRPT CLOUDY      56  32  40  SW7     30.05F
#ADAMS 3WNW     N/A         56  37  49  SW12    30.07S
#ATHENA         N/A         55  36  49  SW5     30.09S
#HELIX SCHOOL   N/A         55  36  49  SW10    30.06S
#HELIX 3N       N/A         53  37  54  SW13    30.02S
#M-F FERNDALE   N/A         58  38  47  CALM    30.05F
#M-F GROVE ELEM N/A         57  34  42  SW7     30.05F
#M-FREEWATER 5SEN/A         57  39  51  W10     30.06F
#PDT AQUATIC CTRN/A         59  35  40  S7      30.04F
#PENDLETON DNTN N/A         59  33  37  SW5     30.01F
#PDT SUNRIDGE   N/A         57  39  51  SE2     30.08S
#PILOT ROCK     N/A         55  35  47  CALM    30.08S
#TUTUILLA       N/A         53  35  50  S3      30.00F
#UMAPINE 2E     N/A         58  38  47  SW6     29.99F
#WESTON SCHOOL  N/A         52  32  46  W13     30.11S

$$

ORZ508-162010-
SOUTHERN FOOTHILLS OF THE BLUES

CITY            SKY/WX      TMP DP  RH  WIND    PRES   REMARKS
LEXINGTON       PTCLDY      61  34  36  S9      30.07F
#AJAX           N/A         53  35  50  N8      30.07S
#CONDON SCHOOL  N/A         51  34  52  SW7     30.01F
#CONDON 5W      N/A         50  32  50  SW7     30.02S
#FOSSIL SCHOOL  N/A         53  33  46  SW5     30.02F
#HEPPNER 4NE    N/A         52  34  50  W3      30.07S
#LEXINGTON 2SE  N/A         59  35  40  W3      30.02F
#OLEX 4N        N/A         58  40  51  W8      30.06S
#RUGGS 5NE      N/A         53  33  46  W7      30.27F
#RUGGS 2SW      N/A         53  32  45  CALM    30.11F

$$

ORZ502-503-162010-
BLUE MOUNTAINS

CITY            SKY/WX      TMP DP  RH  WIND    PRES   REMARKS
MEACHAM         CLOUDY      45  32  60  CALM    30.06R
#BATTLE MTN DOT N/A         41  36  82  SE2     N/A
#HARDMAN 10S    N/A         46  29  51  S3      30.09F
#HEPPNER 15SE   N/A         49  32  52  E5      29.95F
#LADD CYN SMT   N/A         48  26  42  CALM    N/A
#LADD CREEK ODOTN/A         48  35  60  NE3     N/A
#LONG CREEK HS  N/A         47  33  58  N7      30.00F
#N POWDER DOT   N/A         53  32  45  S2      N/A
#TOLLGATE       N/A         37  33  85  S6      29.99S
#TOLLGATE 9W    N/A         43  35  73  SW3     N/A
#TROY SCHOOL    N/A         54  37  52  NW5     29.91F
#UKIAH          N/A         48  34  58  CALM    30.13F
#WESTON 4E      N/A         47  35  63  S7      30.03S
$$

ORZ505-162010-
JOHN DAY BASIN

CITY            SKY/WX      TMP DP  RH  WIND    PRES   REMARKS
JOHN DAY        MOCLDY      52  28  39  NW6     30.05F
#JOHN DAY KJDY  N/A         57  22  25  W1      30.02R
#MONUMENT HS    N/A         57  26  30  W3      30.01F
#MT. VERNON 5SE N/A         49  27  42  CALM    30.01F
$$

ORZ506-162010-
OCHOCO AND JOHN DAY HIGHLANDS

CITY            SKY/WX      TMP DP  RH  WIND    PRES   REMARKS
#ANTONE         N/A         32  N/A N/A CALM    N/A
#BUCK CREEK DOT N/A         53  33  46  SW6     N/A
#HORSE RIDGE DO N/A         51  25  36  NW7     N/A
#KEYES SMT DOT  N/A         49  27  42  SW15    N/A    WCI 43
#PAULINA SCHOOL N/A         53  25  33  E5      30.05F
#PRAIRIE CITY   N/A         50  22  33  SW2     30.06F
#SENECA 9NW     N/A         50  24  36  S2      30.04F
$$

ORZ049-162010-
GRANDE RONDE VALLEY

CITY            SKY/WX      TMP DP  RH  WIND    PRES   REMARKS
LA GRANDE       CLOUDY      52  28  39  SW3     30.06S
#COVE           N/A         50  34  54  N2      29.98F
#COVE SCHOOL    N/A         50  31  48  W1      30.04S
#COVE 6NW       N/A         49  31  50  N1      30.14S
#ELGIN 3N       N/A         51  32  48  S8      29.78F
#ELGIN 1E       N/A         52  34  50  CALM    N/A
#IMBLER SCHOOL  N/A         50  33  52  CALM    30.01F
#ISLAND CITY 4N N/A         51  36  56  SW7     30.03F
#LADD CYN DOT   N/A         50  31  48  NE2     N/A
#LA GRANDE ELEM N/A         51  33  50  SE2     30.04S
#UNION 1S       N/A         52  34  50  CALM    30.01S
$$

ORZ050-162010-
WALLOWA COUNTY

CITY            SKY/WX      TMP DP  RH  WIND    PRES   REMARKS
JOSEPH AIRPORT  PTCLDY      48  27  44  CALM    30.05F
#ENTERPRISE HS  N/A         47  29  49  W1      30.05F
#IMNAHA SCHOOL  N/A         56  22  26  CALM    29.94F
#JOSEPH 3N      N/A         45  30  55  W2      30.06F
#LOSTINE        N/A         47  31  53  CALM    29.90F
#MT HOWARD 8000 N/A         30  19  63  SW2     30.00R
#PROMISE 1S     N/A         44  31  60  E6      30.17S
#SHEEP RDG 7000 N/A         30  22  72  CALM    30.17R
#WALLOWA SCHOOL N/A         50  32  50  CALM    31.03F



$$



USA.gov is the U.S. government's official web portal to all federal, state and local government web resources and services.